Regional Weather Roundup
Issued by NWS Cleveland, OH

Home | Current Version | Previous Version | Text Only | Print | Product List | Glossary On
Versions: 1 2 3 4 5 6 7 8 9 10 11 12 13 14 15 16 17 18 19 20 21 22 23 24 25 26 27 28 29 30 31 32 33 34 35 36 37 38 39 40 41 42 43 44 45 46 47 48 49 50
000
ASUS41 KCLE 271010
RWRCLE
OHIO REGIONAL WEATHER ROUNDUP
NATIONAL WEATHER SERVICE CLEVELAND, OH
500 AM EST SAT DEC 27 2014

NOTE: "FAIR" INDICATES FEW OR NO CLOUDS BELOW 12,000 FEET WITH NO
SIGNIFICANT WEATHER AND/OR OBSTRUCTIONS TO VISIBILITY.

OHZ001>008-015>018-024>027-034-035-043-044-271100-
   NORTHWEST OHIO

CITY           SKY/WX    TMP DP  RH WIND       PRES   REMARKS
DEFIANCE       CLOUDY    45  39  79 S6        30.12F
FINDLAY        CLOUDY    45  38  76 S6        30.12F
TOLEDO EXPRESS CLOUDY    45  38  76 SW8       30.10F
TOLEDO EXEC    CLOUDY    45  37  73 SW7       30.12F
LIMA           CLOUDY    46  36  68 S7        30.13S
$$

OHZ009>014-019>023-028>033-038-089-271100-
   NORTHEAST OHIO

CITY           SKY/WX    TMP DP  RH WIND       PRES   REMARKS
CLE-HOPKINS    CLOUDY    44  34  67 S9        30.18S
CLE-LAKEFRONT  CLOUDY    47  34  60 S8        30.15S
CUY CO. ARPT   NOT AVBL
LORAIN-ELYRIA  CLOUDY    40  34  79 S7        30.16S
ASHTABULA      CLOUDY    39  33  79 S7        30.17S
AKRON-CANTON   CLOUDY    40  32  73 S5        30.18S
WOOSTER        MOCLDY    37  32  82 SW3       30.18S
MANSFIELD      PTCLDY    43  34  70 SW7       30.15F
YOUNGSTOWN     CLOUDY    40  32  73 S6        30.17S
$$

OHZ042-051>053-060>062-070>072-077>081-271100-
  SOUTHWEST OHIO

CITY           SKY/WX    TMP DP  RH WIND       PRES   REMARKS
CINC-COVINGTON PTCLDY    38  30  73 S6        30.18F
CINC-LUNKEN    CLEAR     33  33 100 CALM      30.22S
HAMILTON       CLOUDY    42  35  76 SE3       30.20R
DAYTON         CLOUDY    46  35  65 S13       30.15F
WRIGHT-PAT AFB CLOUDY    44  35  70 S8        30.16F
DAYTON GENERAL CLOUDY    42  34  73 S8        30.17S
WILMINGTON     CLEAR     38  31  76 S6        30.18F
$$

OHZ036-037-039>041-045>050-054>059-063>069-073>076-082>088-271100-
  CENTRAL AND SOUTHEAST OHIO

CITY           SKY/WX    TMP DP  RH WIND       PRES   REMARKS
COLUMBUS       CLOUDY    41  33  73 SE7       30.16F
OSU AIRPORT    CLOUDY    41  34  76 S9        30.16F
BOLTON FIELD   CLOUDY    41  35  78 MISG      30.17F
RICKENBACK AFB CLOUDY    40  34  79 S8        30.18F
NEWARK         CLOUDY    36  33  89 CALM      30.18F
MARION         CLOUDY    43  34  70 S7        30.15F
LANCASTER      CLOUDY    37  33  85 SE3       30.19F
ZANESVILLE     CLOUDY    32  30  92 CALM      30.20F
NEW PHILLY     CLOUDY    35  31  85 SE5       30.21S
$$



USA.gov is the U.S. government's official web portal to all federal, state and local government web resources and services.